This is the latest recevied weather packets stored in our database for station/object NQ9F. If no packets are shown the sender has not sent any weather packets the latest 10 day(s).
| Time | Temp. | Humidity | Pressure | Rain* | Wind** | Luminosity | Snow |
|---|---|---|---|---|---|---|---|
| 1777496632 | 16.11° C | 79% | 1014.3 hPa | 0 mm | - | 161 W/m² | - |
| 1777496328 | 16.11° C | 80% | 1014.1 hPa | 0 mm | - | 140 W/m² | - |
| 1777496024 | 16.11° C | 80% | 1014 hPa | 0 mm | - | 145 W/m² | - |
| 1777495721 | 16.11° C | 80% | 1014.2 hPa | 0 mm | - | 192 W/m² | - |
| 1777495113 | 16.67° C | 79% | 1014 hPa | 0 mm | - | 264 W/m² | - |
| 1777494811 | 16.67° C | 78% | 1014.5 hPa | 0 mm | - | 162 W/m² | - |
| 1777494205 | 16.67° C | 78% | 1014 hPa | 0 mm | - | 354 W/m² | - |
| 1777493901 | 16.67° C | 79% | 1014.3 hPa | 0 mm | - | 310 W/m² | - |
| 1777493600 | 16.67° C | 78% | 1014.6 hPa | 0 mm | - | 265 W/m² | - |
| 1777493297 | 16.67° C | 77% | 1014.6 hPa | 0 mm | - | 330 W/m² | - |
| 1777491481 | 16.11° C | 76% | 1015.2 hPa | 0 mm | - | 359 W/m² | - |
| 1777491178 | 16.67° C | 78% | 1015.4 hPa | 0 mm | - | 328 W/m² | - |
| 1777490874 | 16.11° C | 78% | 1015.7 hPa | 0 mm | - | 269 W/m² | - |
| 1777490570 | 16.11° C | 79% | 1015.4 hPa | 0 mm | - | 382 W/m² | - |
| 1777490266 | 16.11° C | 78% | 1015.3 hPa | 0 mm | - | 424 W/m² | - |
| 1777489358 | 16.67° C | 80% | 1015.5 hPa | 0 mm | - | 507 W/m² | - |
| 1777488450 | 15.56° C | 80% | 1015.7 hPa | 0 mm | - | 259 W/m² | - |
| 1777488148 | 15.56° C | 82% | 1016 hPa | 0 mm | - | 189 W/m² | - |
| 1777487846 | 15.56° C | 82% | 1016.1 hPa | 0 mm | - | 241 W/m² | - |
| 1777487544 | 15.56° C | 81% | 1016.2 hPa | 0 mm | - | 221 W/m² | - |
| 1777487240 | 15.56° C | 82% | 1016.3 hPa | 0 mm | - | 222 W/m² | - |
| 1777486633 | 15.56° C | 81% | 1016.4 hPa | 0 mm | - | 236 W/m² | - |
| 1777486331 | 15.56° C | 82% | 1016.4 hPa | 0 mm | - | 216 W/m² | - |
| 1777485116 | 15° C | 82% | 1016.4 hPa | 0 mm | - | 136 W/m² | - |
| 1777483600 | 15° C | 84% | 1017 hPa | 0 mm | - | 212 W/m² | - |
* Rain latest hour (hover to see other rain measurements)
** Current wind speed in m/s (hover to see current wind gust speed)